Time,TemperatureF,DewpointF,PressureIn,WindDirection,WindDirectionDegrees,WindSpeedMPH,WindSpeedGustMPH,Humidity,HourlyPrecipIn,Conditions,Clouds,dailyrainin,SoftwareType,DateUTC
2013-04-27 00:01:00,29.9,26.2,29.83,NNE,25,0.9,1.6,84,-99.99,,,-99.99,WSDL version 423,2013-04-27 04:01:00,
2013-04-27 00:06:00,29.8,26.3,29.83,NNE,23,0.0,1.6,86,-99.99,,,-99.99,WSDL version 423,2013-04-27 04:06:00,
2013-04-27 00:11:00,29.7,26.3,29.83,North,6,0.8,2.0,86,-99.99,,,-99.99,WSDL version 423,2013-04-27 04:11:00,
2013-04-27 00:16:00,29.6,26.6,29.83,NE,38,0.0,2.0,87,-99.99,,,-99.99,WSDL version 423,2013-04-27 04:16:00,
2013-04-27 00:21:00,29.5,26.4,29.83,ENE,68,0.0,0.9,87,-99.99,,,-99.99,WSDL version 423,2013-04-27 04:21:00,
2013-04-27 00:26:00,29.5,26.5,29.83,East,90,0.0,0.9,88,-99.99,,,-99.99,WSDL version 423,2013-04-27 04:26:00,
2013-04-27 00:31:00,29.4,26.6,29.85,East,88,0.0,0.0,88,-99.99,,,-99.99,WSDL version 423,2013-04-27 04:31:00,
2013-04-27 00:36:00,29.3,26.5,29.85,ENE,68,0.0,0.0,88,-99.99,,,-99.99,WSDL version 423,2013-04-27 04:36:00,
2013-04-27 00:41:00,29.1,26.3,29.85,North,3,0.0,0.0,88,-99.99,,,-99.99,WSDL version 423,2013-04-27 04:41:00,
2013-04-27 00:46:00,29.2,26.3,29.85,NNW,343,0.0,0.0,88,-99.99,,,-99.99,WSDL version 423,2013-04-27 04:46:00,
2013-04-27 00:51:00,29.1,26.3,29.85,NNE,15,0.0,0.0,88,-99.99,,,-99.99,WSDL version 423,2013-04-27 04:51:00,
2013-04-27 00:56:00,29.1,26.3,29.85,NNE,23,0.0,0.9,88,-99.99,,,-99.99,WSDL version 423,2013-04-27 04:56:00,
2013-04-27 01:01:00,29.1,26.3,29.83,NE,45,0.0,0.9,89,-99.99,,,-99.99,WSDL version 423,2013-04-27 05:01:00,
2013-04-27 01:06:00,28.9,26.4,29.83,NE,45,0.0,0.0,89,-99.99,,,-99.99,WSDL version 423,2013-04-27 05:06:00,
2013-04-27 01:11:00,28.9,26.3,29.83,NE,45,0.0,0.0,89,-99.99,,,-99.99,WSDL version 423,2013-04-27 05:11:00,
2013-04-27 01:16:00,28.8,26.3,29.85,NNE,23,0.7,2.2,89,-99.99,,,-99.99,WSDL version 423,2013-04-27 05:16:00,
2013-04-27 01:21:00,28.8,26.4,29.85,NNE,17,1.0,2.2,90,-99.99,,,-99.99,WSDL version 423,2013-04-27 05:21:00,
2013-04-27 01:26:00,28.8,26.5,29.85,NNE,13,0.0,2.0,90,-99.99,,,-99.99,WSDL version 423,2013-04-27 05:26:00,
2013-04-27 01:31:00,28.8,26.6,29.83,NNE,25,0.9,2.0,91,-99.99,,,-99.99,WSDL version 423,2013-04-27 05:31:00,
2013-04-27 01:36:00,28.8,26.8,29.83,NNE,25,1.4,2.5,91,-99.99,,,-99.99,WSDL version 423,2013-04-27 05:36:00,
2013-04-27 01:41:00,28.8,27.0,29.83,NNW,348,1.2,2.5,93,-99.99,,,-99.99,WSDL version 423,2013-04-27 05:41:00,
2013-04-27 01:46:00,28.8,27.3,29.83,NNE,20,0.0,2.2,93,-99.99,,,-99.99,WSDL version 423,2013-04-27 05:46:00,
2013-04-27 01:51:00,28.7,27.2,29.83,NNE,18,0.3,2.0,93,-99.99,,,-99.99,WSDL version 423,2013-04-27 05:51:00,
2013-04-27 01:56:00,28.6,27.1,29.83,North,360,0.0,2.0,93,-99.99,,,-99.99,WSDL version 423,2013-04-27 05:56:00,
2013-04-27 02:01:00,28.6,27.1,29.83,NNE,23,1.0,2.0,93,-99.99,,,-99.99,WSDL version 423,2013-04-27 06:01:00,
2013-04-27 02:06:00,28.5,27.1,29.83,NNE,25,1.0,2.0,94,-99.99,,,-99.99,WSDL version 423,2013-04-27 06:06:00,
2013-04-27 02:11:00,28.6,27.3,29.83,North,11,1.1,2.7,94,-99.99,,,-99.99,WSDL version 423,2013-04-27 06:11:00,
2013-04-27 02:16:00,28.4,27.2,29.83,North,360,0.0,2.7,94,-99.99,,,-99.99,WSDL version 423,2013-04-27 06:16:00,
2013-04-27 02:21:00,28.4,27.2,29.83,North,360,0.0,0.0,94,-99.99,,,-99.99,WSDL version 423,2013-04-27 06:21:00,
2013-04-27 02:26:00,28.2,27.0,29.83,North,360,0.0,0.0,94,-99.99,,,-99.99,WSDL version 423,2013-04-27 06:26:00,
2013-04-27 02:31:00,28.2,27.0,29.83,North,352,0.0,0.0,94,-99.99,,,-99.99,WSDL version 423,2013-04-27 06:31:00,
2013-04-27 02:36:00,28.1,26.9,29.83,North,352,0.0,0.0,94,-99.99,,,-99.99,WSDL version 423,2013-04-27 06:36:00,
2013-04-27 02:41:00,28.1,26.9,29.83,NNE,23,0.0,0.0,94,-99.99,,,-99.99,WSDL version 423,2013-04-27 06:41:00,
2013-04-27 02:46:00,28.0,26.8,29.83,NNE,23,0.0,0.0,94,-99.99,,,-99.99,WSDL version 423,2013-04-27 06:46:00,
2013-04-27 02:51:00,28.0,26.8,29.83,NNE,23,0.0,0.0,94,-99.99,,,-99.99,WSDL version 423,2013-04-27 06:51:00,
2013-04-27 02:56:00,28.0,26.8,29.83,NNE,23,0.0,0.0,94,-99.99,,,-99.99,WSDL version 423,2013-04-27 06:56:00,
2013-04-27 03:01:00,28.0,26.8,29.83,NNE,28,0.3,1.3,94,-99.99,,,-99.99,WSDL version 423,2013-04-27 07:01:00,
2013-04-27 03:06:00,28.0,26.9,29.83,NNE,28,0.1,1.3,96,-99.99,,,-99.99,WSDL version 423,2013-04-27 07:06:00,
2013-04-27 03:11:00,28.0,27.1,29.83,NNE,25,0.2,2.0,96,-99.99,,,-99.99,WSDL version 423,2013-04-27 07:11:00,
2013-04-27 03:16:00,28.0,27.2,29.83,NE,35,0.0,2.0,97,-99.99,,,-99.99,WSDL version 423,2013-04-27 07:16:00,
2013-04-27 03:21:00,28.1,27.4,29.83,NNE,23,0.4,2.2,97,-99.99,,,-99.99,WSDL version 423,2013-04-27 07:21:00,
2013-04-27 03:26:00,28.1,27.4,29.83,NNE,31,0.0,2.2,97,-99.99,,,-99.99,WSDL version 423,2013-04-27 07:26:00,
2013-04-27 03:31:00,28.0,27.4,29.83,North,360,0.0,1.1,98,-99.99,,,-99.99,WSDL version 423,2013-04-27 07:31:00,
2013-04-27 03:36:00,28.0,27.6,29.83,NE,45,0.0,1.1,98,-99.99,,,-99.99,WSDL version 423,2013-04-27 07:36:00,
2013-04-27 03:41:00,28.0,27.6,29.83,NE,45,0.0,0.9,98,-99.99,,,-99.99,WSDL version 423,2013-04-27 07:41:00,
2013-04-27 03:46:00,28.0,27.6,29.80,NE,45,0.0,0.0,98,-99.99,,,-99.99,WSDL version 423,2013-04-27 07:46:00,
2013-04-27 03:51:00,28.0,27.5,29.80,NNE,23,0.0,0.0,98,-99.99,,,-99.99,WSDL version 423,2013-04-27 07:51:00,
2013-04-27 03:56:00,27.9,27.1,29.80,NNE,23,0.0,0.0,97,-99.99,,,-99.99,WSDL version 423,2013-04-27 07:56:00,
2013-04-27 04:01:00,27.9,27.2,29.83,North,3,0.5,1.6,98,-99.99,,,-99.99,WSDL version 423,2013-04-27 08:01:00,
2013-04-27 04:06:00,27.9,27.4,29.83,NNE,23,0.0,1.6,98,-99.99,,,-99.99,WSDL version 423,2013-04-27 08:06:00,
2013-04-27 04:11:00,27.9,27.4,29.83,NE,39,0.0,1.3,98,-99.99,,,-99.99,WSDL version 423,2013-04-27 08:11:00,
2013-04-27 04:16:00,27.8,27.3,29.83,North,354,0.0,1.3,98,-99.99,,,-99.99,WSDL version 423,2013-04-27 08:16:00,
2013-04-27 04:21:00,27.9,27.4,29.83,North,10,1.2,2.2,99,-99.99,,,-99.99,WSDL version 423,2013-04-27 08:21:00,
2013-04-27 04:26:00,27.9,27.6,29.83,NNW,338,0.3,2.2,99,-99.99,,,-99.99,WSDL version 423,2013-04-27 08:26:00,
2013-04-27 04:31:00,27.9,27.6,29.80,NNW,346,0.0,2.0,99,-99.99,,,-99.99,WSDL version 423,2013-04-27 08:31:00,
2013-04-27 04:36:00,27.8,27.5,29.80,North,360,0.0,0.0,99,-99.99,,,-99.99,WSDL version 423,2013-04-27 08:36:00,
2013-04-27 04:41:00,27.7,27.4,29.80,North,360,0.0,0.0,99,-99.99,,,-99.99,WSDL version 423,2013-04-27 08:41:00,
2013-04-27 04:46:00,27.7,27.4,29.80,North,8,0.0,0.0,99,-99.99,,,-99.99,WSDL version 423,2013-04-27 08:46:00,
2013-04-27 04:51:00,27.7,27.4,29.80,NNE,23,0.0,0.0,99,-99.99,,,-99.99,WSDL version 423,2013-04-27 08:51:00,
2013-04-27 04:56:00,27.7,27.4,29.80,North,360,0.0,0.9,99,-99.99,,,-99.99,WSDL version 423,2013-04-27 08:56:00,
2013-04-27 05:01:00,27.7,27.4,29.83,North,360,0.0,0.9,99,-99.99,,,-99.99,WSDL version 423,2013-04-27 09:01:00,
2013-04-27 05:06:00,27.7,27.4,29.83,North,360,0.0,0.0,99,-99.99,,,-99.99,WSDL version 423,2013-04-27 09:06:00,
2013-04-27 05:11:00,27.7,27.4,29.83,North,360,0.0,0.0,99,-99.99,,,-99.99,WSDL version 423,2013-04-27 09:11:00,
2013-04-27 05:16:00,27.7,27.4,29.83,North,360,0.0,0.0,99,-99.99,,,-99.99,WSDL version 423,2013-04-27 09:16:00,
2013-04-27 05:21:00,27.7,27.4,29.83,North,360,0.0,0.0,99,-99.99,,,-99.99,WSDL version 423,2013-04-27 09:21:00,
2013-04-27 05:26:00,27.5,27.3,29.83,North,360,0.0,0.0,99,-99.99,,,-99.99,WSDL version 423,2013-04-27 09:26:00,
2013-04-27 05:31:00,27.5,27.3,29.80,North,360,0.0,0.0,99,-99.99,,,-99.99,WSDL version 423,2013-04-27 09:31:00,
2013-04-27 05:36:00,27.4,27.2,29.80,North,360,0.0,0.0,99,-99.99,,,-99.99,WSDL version 423,2013-04-27 09:36:00,
2013-04-27 05:41:00,27.3,27.1,29.80,North,360,0.0,0.0,99,-99.99,,,-99.99,WSDL version 423,2013-04-27 09:41:00,
2013-04-27 05:46:00,27.3,27.1,29.83,NE,48,0.3,1.1,99,-99.99,,,-99.99,WSDL version 423,2013-04-27 09:46:00,
2013-04-27 05:51:00,27.3,27.1,29.83,NNE,23,0.0,1.1,99,-99.99,,,-99.99,WSDL version 423,2013-04-27 09:51:00,
2013-04-27 05:56:00,27.3,27.1,29.83,NNE,23,0.0,0.9,99,-99.99,,,-99.99,WSDL version 423,2013-04-27 09:56:00,
2013-04-27 06:01:00,27.4,27.3,29.80,North,360,0.0,1.3,100,-99.99,,,-99.99,WSDL version 423,2013-04-27 10:01:00,
2013-04-27 06:06:00,27.5,27.5,29.80,North,3,0.3,1.3,100,-99.99,,,-99.99,WSDL version 423,2013-04-27 10:06:00,
2013-04-27 06:11:00,27.7,27.7,29.80,North,360,0.3,2.5,100,-99.99,,,-99.99,WSDL version 423,2013-04-27 10:11:00,
2013-04-27 06:16:00,28.0,28.0,29.83,North,357,1.5,2.5,100,-99.99,,,-99.99,WSDL version 423,2013-04-27 10:16:00,
2013-04-27 06:21:00,28.3,28.3,29.83,North,3,1.5,2.9,100,-99.99,,,-99.99,WSDL version 423,2013-04-27 10:21:00,
2013-04-27 06:26:00,28.6,28.6,29.83,NNE,14,1.9,3.1,100,-99.99,,,-99.99,WSDL version 423,2013-04-27 10:26:00,
2013-04-27 06:31:00,28.8,28.8,29.80,North,350,1.2,3.1,100,-99.99,,,-99.99,WSDL version 423,2013-04-27 10:31:00,
2013-04-27 06:36:00,29.3,29.3,29.80,North,8,1.8,2.5,100,-99.99,,,-99.99,WSDL version 423,2013-04-27 10:36:00,
2013-04-27 06:41:00,29.9,29.9,29.80,North,353,1.7,2.7,100,-99.99,,,-99.99,WSDL version 423,2013-04-27 10:41:00,
2013-04-27 06:46:00,30.1,30.1,29.83,North,354,0.2,2.7,100,-99.99,,,-99.99,WSDL version 423,2013-04-27 10:46:00,
2013-04-27 06:51:00,30.4,30.4,29.83,NNW,343,0.0,1.6,100,-99.99,,,-99.99,WSDL version 423,2013-04-27 10:51:00,
2013-04-27 06:56:00,30.8,30.8,29.83,NNW,348,0.0,0.0,100,-99.99,,,-99.99,WSDL version 423,2013-04-27 10:56:00,
2013-04-27 07:01:00,31.2,31.2,29.83,North,357,0.8,2.0,100,-99.99,,,-99.99,WSDL version 423,2013-04-27 11:01:00,
2013-04-27 07:06:00,31.6,31.6,29.83,North,355,0.0,2.0,100,-99.99,,,-99.99,WSDL version 423,2013-04-27 11:06:00,
2013-04-27 07:11:00,32.0,32.0,29.83,North,349,1.2,2.2,100,-99.99,,,-99.99,WSDL version 423,2013-04-27 11:11:00,
2013-04-27 07:16:00,32.2,32.2,29.83,North,3,0.7,2.2,100,-99.99,,,-99.99,WSDL version 423,2013-04-27 11:16:00,
2013-04-27 07:21:00,32.4,32.4,29.83,NNW,338,0.7,2.0,100,-99.99,,,-99.99,WSDL version 423,2013-04-27 11:21:00,
2013-04-27 07:26:00,32.5,32.5,29.83,North,352,0.3,2.0,100,-99.99,,,-99.99,WSDL version 423,2013-04-27 11:26:00,
2013-04-27 07:31:00,32.5,32.5,29.83,NNE,18,0.0,2.0,100,-99.99,,,-99.99,WSDL version 423,2013-04-27 11:31:00,
2013-04-27 07:36:00,32.6,32.6,29.83,NNE,14,0.0,1.1,100,-99.99,,,-99.99,WSDL version 423,2013-04-27 11:36:00,
2013-04-27 07:41:00,32.8,32.8,29.83,NNW,338,0.0,1.1,100,-99.99,,,-99.99,WSDL version 423,2013-04-27 11:41:00,
2013-04-27 07:46:00,33.1,33.1,29.83,NNW,338,0.0,0.9,100,-99.99,,,-99.99,WSDL version 423,2013-04-27 11:46:00,
2013-04-27 07:51:00,33.3,33.3,29.83,NNW,338,0.0,0.0,100,-99.99,,,-99.99,WSDL version 423,2013-04-27 11:51:00,
2013-04-27 07:56:00,33.7,33.7,29.83,NNW,338,0.0,0.0,100,-99.99,,,-99.99,WSDL version 423,2013-04-27 11:56:00,
2013-04-27 08:03:00,34.2,34.2,29.83,NNW,338,0.0,0.0,100,-99.99,,,-99.99,WSDL version 423,2013-04-27 12:03:00,
2013-04-27 08:08:00,34.5,34.5,29.83,NNE,18,0.7,1.6,100,-99.99,,,-99.99,WSDL version 423,2013-04-27 12:08:00,
2013-04-27 08:13:00,34.6,34.6,29.83,North,3,1.2,2.7,100,-99.99,,,-99.99,WSDL version 423,2013-04-27 12:13:00,
2013-04-27 08:18:00,35.0,35.0,29.83,North,358,1.3,2.7,99,-99.99,,,-99.99,WSDL version 423,2013-04-27 12:18:00,
2013-04-27 08:23:00,35.5,35.1,29.83,North,10,2.0,2.9,98,-99.99,,,-99.99,WSDL version 423,2013-04-27 12:23:00,
2013-04-27 08:28:00,36.1,35.2,29.83,NNW,344,1.0,3.4,96,-99.99,,,-99.99,WSDL version 423,2013-04-27 12:28:00,
2013-04-27 08:33:00,36.7,35.6,29.83,North,10,1.0,3.4,96,-99.99,,,-99.99,WSDL version 423,2013-04-27 12:33:00,
2013-04-27 08:38:00,37.8,36.4,29.83,North,6,1.8,2.7,94,-99.99,,,-99.99,WSDL version 423,2013-04-27 12:38:00,
2013-04-27 08:43:00,39.8,37.9,29.83,North,8,1.1,3.6,91,-99.99,,,-99.99,WSDL version 423,2013-04-27 12:43:00,
2013-04-27 08:48:00,40.4,37.1,29.83,NNW,332,1.6,3.6,86,-99.99,,,-99.99,WSDL version 423,2013-04-27 12:48:00,
2013-04-27 08:53:00,40.8,36.0,29.83,NNW,348,1.7,2.9,81,-99.99,,,-99.99,WSDL version 423,2013-04-27 12:53:00,
2013-04-27 08:58:00,41.7,36.0,29.83,NE,56,0.7,2.7,80,-99.99,,,-99.99,WSDL version 423,2013-04-27 12:58:00,
2013-04-27 09:03:00,42.9,37.0,29.83,NNW,348,1.8,2.7,78,-99.99,,,-99.99,WSDL version 423,2013-04-27 13:03:00,
2013-04-27 09:08:00,44.0,36.7,29.83,NNE,25,0.8,2.7,75,-99.99,,,-99.99,WSDL version 423,2013-04-27 13:08:00,
2013-04-27 09:13:00,45.1,37.7,29.83,NE,48,1.2,2.5,74,-99.99,,,-99.99,WSDL version 423,2013-04-27 13:13:00,
2013-04-27 09:18:00,45.8,37.7,29.83,ESE,123,0.0,2.5,73,-99.99,,,-99.99,WSDL version 423,2013-04-27 13:18:00,
2013-04-27 09:23:00,47.5,39.0,29.83,NNE,26,0.0,0.0,72,-99.99,,,-99.99,WSDL version 423,2013-04-27 13:23:00,
2013-04-27 09:28:00,48.5,39.6,29.83,WSW,239,0.0,0.0,70,-99.99,,,-99.99,WSDL version 423,2013-04-27 13:28:00,
2013-04-27 09:33:00,49.4,39.5,29.83,WSW,243,0.0,1.1,68,-99.99,,,-99.99,WSDL version 423,2013-04-27 13:33:00,
2013-04-27 09:38:00,50.8,40.5,29.83,WSW,253,0.3,1.6,67,-99.99,,,-99.99,WSDL version 423,2013-04-27 13:38:00,
2013-04-27 09:43:00,52.1,40.4,29.80,SW,225,0.0,1.6,65,-99.99,,,-99.99,WSDL version 423,2013-04-27 13:43:00,
2013-04-27 09:48:00,54.0,41.6,29.80,SW,228,0.0,0.9,63,-99.99,,,-99.99,WSDL version 423,2013-04-27 13:48:00,
2013-04-27 09:53:00,55.3,41.3,29.80,South,180,0.2,2.7,56,-99.99,,,-99.99,WSDL version 423,2013-04-27 13:53:00,
2013-04-27 09:58:00,56.4,39.8,29.80,SW,225,0.0,2.7,49,-99.99,,,-99.99,WSDL version 423,2013-04-27 13:58:00,
2013-04-27 10:03:00,57.3,39.1,29.80,WSW,257,0.0,0.9,51,-99.99,,,-99.99,WSDL version 423,2013-04-27 14:03:00,
2013-04-27 10:08:00,58.4,38.0,29.80,South,173,1.4,3.8,44,-99.99,,,-99.99,WSDL version 423,2013-04-27 14:08:00,
2013-04-27 10:13:00,57.9,34.6,29.80,West,267,0.0,3.8,41,-99.99,,,-99.99,WSDL version 423,2013-04-27 14:13:00,
2013-04-27 10:18:00,57.4,33.5,29.80,SE,129,1.0,3.1,41,-99.99,,,-99.99,WSDL version 423,2013-04-27 14:18:00,
2013-04-27 10:23:00,57.1,32.1,29.80,SE,138,1.7,3.8,39,-99.99,,,-99.99,WSDL version 423,2013-04-27 14:23:00,
2013-04-27 10:28:00,56.8,31.6,29.80,SSW,195,0.6,5.4,38,-99.99,,,-99.99,WSDL version 423,2013-04-27 14:28:00,
2013-04-27 10:33:00,56.6,31.4,29.80,ENE,65,0.2,5.4,39,-99.99,,,-99.99,WSDL version 423,2013-04-27 14:33:00,
2013-04-27 10:38:00,56.9,32.2,29.80,WSW,238,0.5,3.6,39,-99.99,,,-99.99,WSDL version 423,2013-04-27 14:38:00,
2013-04-27 10:43:00,57.8,33.2,29.80,WSW,240,0.3,3.1,39,-99.99,,,-99.99,WSDL version 423,2013-04-27 14:43:00,
2013-04-27 10:48:00,58.8,33.1,29.80,East,83,0.8,2.7,37,-99.99,,,-99.99,WSDL version 423,2013-04-27 14:48:00,
2013-04-27 10:53:00,59.2,32.1,29.80,SSW,213,1.2,2.9,35,-99.99,,,-99.99,WSDL version 423,2013-04-27 14:53:00,
2013-04-27 10:58:00,60.1,32.4,29.83,WNW,287,0.3,2.9,35,-99.99,,,-99.99,WSDL version 423,2013-04-27 14:58:00,
2013-04-27 11:03:00,61.3,33.4,29.83,South,188,0.3,3.1,35,-99.99,,,-99.99,WSDL version 423,2013-04-27 15:03:00,
2013-04-27 11:08:00,62.1,33.7,29.83,South,169,1.2,3.4,34,-99.99,,,-99.99,WSDL version 423,2013-04-27 15:08:00,
2013-04-27 11:13:00,62.4,32.0,29.80,WSW,255,2.8,6.0,32,-99.99,,,-99.99,WSDL version 423,2013-04-27 15:13:00,
2013-04-27 11:18:00,62.6,32.6,29.80,SW,235,0.8,6.0,33,-99.99,,,-99.99,WSDL version 423,2013-04-27 15:18:00,
2013-04-27 11:23:00,63.1,32.3,29.80,WSW,239,2.3,3.8,30,-99.99,,,-99.99,WSDL version 423,2013-04-27 15:23:00,
2013-04-27 11:28:00,63.2,30.7,29.80,SW,228,2.0,3.8,29,-99.99,,,-99.99,WSDL version 423,2013-04-27 15:28:00,
2013-04-27 11:33:00,62.8,29.9,29.80,WSW,250,0.4,2.9,29,-99.99,,,-99.99,WSDL version 423,2013-04-27 15:33:00,
2013-04-27 11:38:00,63.3,31.0,29.80,SSW,205,0.1,2.5,30,-99.99,,,-99.99,WSDL version 423,2013-04-27 15:38:00,
2013-04-27 11:43:00,63.9,30.8,29.80,NE,37,0.5,2.9,28,-99.99,,,-99.99,WSDL version 423,2013-04-27 15:43:00,
2013-04-27 11:48:00,64.4,30.1,29.80,SW,220,0.2,2.9,27,-99.99,,,-99.99,WSDL version 423,2013-04-27 15:48:00,
2013-04-27 11:53:00,65.0,30.7,29.80,West,267,1.4,2.9,27,-99.99,,,-99.99,WSDL version 423,2013-04-27 15:53:00,
2013-04-27 11:58:00,64.8,29.6,29.80,WSW,248,1.1,2.9,27,-99.99,,,-99.99,WSDL version 423,2013-04-27 15:58:00,
2013-04-27 12:03:00,64.5,28.5,29.80,SW,235,2.2,3.4,25,-99.99,,,-99.99,WSDL version 423,2013-04-27 16:03:00,
2013-04-27 12:08:00,64.3,27.9,29.80,WSW,254,1.2,4.7,25,-99.99,,,-99.99,WSDL version 423,2013-04-27 16:08:00,
2013-04-27 12:13:00,64.6,28.2,29.80,NNE,20,0.2,4.7,25,-99.99,,,-99.99,WSDL version 423,2013-04-27 16:13:00,
2013-04-27 12:18:00,64.8,28.1,29.80,NNW,334,0.3,3.8,25,-99.99,,,-99.99,WSDL version 423,2013-04-27 16:18:00,
2013-04-27 12:23:00,64.5,27.9,29.80,WSW,243,1.9,3.8,25,-99.99,,,-99.99,WSDL version 423,2013-04-27 16:23:00,
2013-04-27 12:28:00,65.2,28.5,29.80,SW,233,1.7,2.7,25,-99.99,,,-99.99,WSDL version 423,2013-04-27 16:28:00,
2013-04-27 12:33:00,65.3,28.6,29.80,SSW,197,0.8,2.9,25,-99.99,,,-99.99,WSDL version 423,2013-04-27 16:33:00,
2013-04-27 12:38:00,65.8,28.9,29.80,South,170,1.2,3.4,24,-99.99,,,-99.99,WSDL version 423,2013-04-27 16:38:00,
2013-04-27 12:43:00,66.1,28.6,29.77,SW,217,2.3,3.4,24,-99.99,,,-99.99,WSDL version 423,2013-04-27 16:43:00,
2013-04-27 12:48:00,66.2,28.8,29.77,SW,219,0.1,3.4,25,-99.99,,,-99.99,WSDL version 423,2013-04-27 16:48:00,
2013-04-27 12:53:00,66.2,28.4,29.77,NW,312,0.0,2.9,24,-99.99,,,-99.99,WSDL version 423,2013-04-27 16:53:00,
2013-04-27 12:58:00,65.5,28.1,29.77,West,275,1.1,4.9,25,-99.99,,,-99.99,WSDL version 423,2013-04-27 16:58:00,
2013-04-27 13:03:00,64.4,27.4,29.77,SW,225,0.7,4.9,25,-99.99,,,-99.99,WSDL version 423,2013-04-27 17:03:00,
2013-04-27 13:08:00,64.0,27.5,29.77,SW,225,0.2,2.5,25,-99.99,,,-99.99,WSDL version 423,2013-04-27 17:08:00,
2013-04-27 13:13:00,65.2,28.6,29.77,SW,215,1.1,2.9,25,-99.99,,,-99.99,WSDL version 423,2013-04-27 17:13:00,
2013-04-27 13:18:00,66.1,28.6,29.77,SW,233,1.0,2.9,24,-99.99,,,-99.99,WSDL version 423,2013-04-27 17:18:00,
2013-04-27 13:23:00,66.8,28.9,29.77,WSW,253,0.4,2.9,24,-99.99,,,-99.99,WSDL version 423,2013-04-27 17:23:00,
2013-04-27 13:28:00,66.7,28.8,29.77,South,177,1.6,3.6,24,-99.99,,,-99.99,WSDL version 423,2013-04-27 17:28:00,
2013-04-27 13:33:00,66.9,29.0,29.77,SSW,200,1.0,3.6,24,-99.99,,,-99.99,WSDL version 423,2013-04-27 17:33:00,
2013-04-27 13:38:00,66.9,28.1,29.77,SSW,208,2.4,5.6,23,-99.99,,,-99.99,WSDL version 423,2013-04-27 17:38:00,
2013-04-27 13:43:00,66.9,27.9,29.77,NE,53,1.0,5.6,23,-99.99,,,-99.99,WSDL version 423,2013-04-27 17:43:00,
2013-04-27 13:48:00,66.7,27.8,29.77,South,175,1.2,3.1,23,-99.99,,,-99.99,WSDL version 423,2013-04-27 17:48:00,
2013-04-27 13:53:00,67.1,28.1,29.77,WSW,253,0.9,3.1,23,-99.99,,,-99.99,WSDL version 423,2013-04-27 17:53:00,
2013-04-27 13:58:00,67.4,28.7,29.77,SSW,208,2.1,3.1,23,-99.99,,,-99.99,WSDL version 423,2013-04-27 17:58:00,
2013-04-27 14:03:00,67.2,28.2,29.77,NW,307,1.7,3.1,23,-99.99,,,-99.99,WSDL version 423,2013-04-27 18:03:00,
2013-04-27 14:08:00,67.0,28.0,29.77,WSW,242,1.4,2.9,23,-99.99,,,-99.99,WSDL version 423,2013-04-27 18:08:00,
2013-04-27 14:13:00,66.9,27.9,29.77,WSW,248,0.8,2.9,23,-99.99,,,-99.99,WSDL version 423,2013-04-27 18:13:00,
2013-04-27 14:18:00,67.0,28.0,29.77,WSW,244,1.4,3.8,23,-99.99,,,-99.99,WSDL version 423,2013-04-27 18:18:00,
2013-04-27 14:23:00,66.8,27.8,29.77,NNW,340,1.1,3.8,23,-99.99,,,-99.99,WSDL version 423,2013-04-27 18:23:00,
2013-04-27 14:28:00,67.1,28.1,29.77,SSE,163,1.3,3.1,23,-99.99,,,-99.99,WSDL version 423,2013-04-27 18:28:00,
2013-04-27 14:33:00,67.2,28.2,29.77,SSW,203,1.3,3.4,23,-99.99,,,-99.99,WSDL version 423,2013-04-27 18:33:00,
2013-04-27 14:38:00,66.9,27.9,29.77,SW,219,1.2,5.8,23,-99.99,,,-99.99,WSDL version 423,2013-04-27 18:38:00,
2013-04-27 14:43:00,66.9,27.9,29.74,SSW,213,0.7,5.8,23,-99.99,,,-99.99,WSDL version 423,2013-04-27 18:43:00,
2013-04-27 14:48:00,66.4,27.5,29.74,South,185,2.3,3.6,23,-99.99,,,-99.99,WSDL version 423,2013-04-27 18:48:00,
2013-04-27 14:53:00,66.1,27.6,29.74,NE,41,1.2,4.3,23,-99.99,,,-99.99,WSDL version 423,2013-04-27 18:53:00,
2013-04-27 14:58:00,66.4,27.7,29.74,NE,45,0.2,4.3,24,-99.99,,,-99.99,WSDL version 423,2013-04-27 18:58:00,
2013-04-27 15:03:00,66.3,27.6,29.74,WSW,239,0.7,3.4,23,-99.99,,,-99.99,WSDL version 423,2013-04-27 19:03:00,
2013-04-27 15:08:00,66.4,28.2,29.74,SSE,158,0.5,3.4,24,-99.99,,,-99.99,WSDL version 423,2013-04-27 19:08:00,
2013-04-27 15:13:00,66.2,28.0,29.74,SSW,205,1.7,3.6,24,-99.99,,,-99.99,WSDL version 423,2013-04-27 19:13:00,
2013-04-27 15:18:00,65.8,28.0,29.74,South,170,2.4,4.9,24,-99.99,,,-99.99,WSDL version 423,2013-04-27 19:18:00,
2013-04-27 15:23:00,65.5,27.8,29.74,SSW,195,1.7,5.4,24,-99.99,,,-99.99,WSDL version 423,2013-04-27 19:23:00,
2013-04-27 15:28:00,65.6,27.8,29.74,South,172,2.3,5.4,24,-99.99,,,-99.99,WSDL version 423,2013-04-27 19:28:00,
2013-04-27 15:33:00,64.9,27.3,29.74,West,270,1.6,5.4,24,-99.99,,,-99.99,WSDL version 423,2013-04-27 19:33:00,
2013-04-27 15:38:00,65.1,27.4,29.74,SW,230,1.5,3.1,24,-99.99,,,-99.99,WSDL version 423,2013-04-27 19:38:00,
2013-04-27 15:43:00,64.9,27.3,29.74,SE,146,2.0,6.3,24,-99.99,,,-99.99,WSDL version 423,2013-04-27 19:43:00,
2013-04-27 15:48:00,64.1,26.5,29.74,SSW,199,1.7,6.3,24,-99.99,,,-99.99,WSDL version 423,2013-04-27 19:48:00,
2013-04-27 15:53:00,63.8,26.3,29.74,ESE,115,2.5,6.5,24,-99.99,,,-99.99,WSDL version 423,2013-04-27 19:53:00,
2013-04-27 15:58:00,63.6,26.2,29.71,North,358,1.3,6.5,24,-99.99,,,-99.99,WSDL version 423,2013-04-27 19:58:00,
2013-04-27 16:03:00,63.0,25.7,29.71,South,183,1.5,4.3,24,-99.99,,,-99.99,WSDL version 423,2013-04-27 20:03:00,
2013-04-27 16:08:00,62.7,25.4,29.71,SW,231,2.7,4.3,24,-99.99,,,-99.99,WSDL version 423,2013-04-27 20:08:00,
2013-04-27 16:13:00,62.2,26.0,29.71,WSW,248,1.6,3.4,25,-99.99,,,-99.99,WSDL version 423,2013-04-27 20:13:00,
2013-04-27 16:18:00,61.8,25.6,29.71,West,276,0.6,3.1,25,-99.99,,,-99.99,WSDL version 423,2013-04-27 20:18:00,
2013-04-27 16:23:00,61.9,25.7,29.71,West,278,1.4,2.9,25,-99.99,,,-99.99,WSDL version 423,2013-04-27 20:23:00,
2013-04-27 16:28:00,61.8,25.6,29.71,SW,230,0.3,2.7,25,-99.99,,,-99.99,WSDL version 423,2013-04-27 20:28:00,
2013-04-27 16:33:00,61.4,25.3,29.71,South,188,0.6,3.1,25,-99.99,,,-99.99,WSDL version 423,2013-04-27 20:33:00,
2013-04-27 16:38:00,61.3,25.2,29.71,WSW,240,0.2,3.1,25,-99.99,,,-99.99,WSDL version 423,2013-04-27 20:38:00,
2013-04-27 16:43:00,61.1,25.1,29.71,West,270,1.2,2.7,25,-99.99,,,-99.99,WSDL version 423,2013-04-27 20:43:00,
2013-04-27 16:48:00,60.7,25.0,29.71,NNW,332,0.4,2.7,26,-99.99,,,-99.99,WSDL version 423,2013-04-27 20:48:00,
2013-04-27 16:53:00,60.5,25.3,29.71,SW,220,1.7,2.9,26,-99.99,,,-99.99,WSDL version 423,2013-04-27 20:53:00,
2013-04-27 16:58:00,60.3,25.3,29.71,SSW,205,0.8,2.9,26,-99.99,,,-99.99,WSDL version 423,2013-04-27 20:58:00,
2013-04-27 17:03:00,60.1,25.2,29.71,SW,223,1.9,3.1,26,-99.99,,,-99.99,WSDL version 423,2013-04-27 21:03:00,
2013-04-27 17:08:00,60.1,25.5,29.71,South,172,1.3,3.8,27,-99.99,,,-99.99,WSDL version 423,2013-04-27 21:08:00,
2013-04-27 17:13:00,59.7,24.8,29.71,South,177,2.0,3.8,26,-99.99,,,-99.99,WSDL version 423,2013-04-27 21:13:00,
2013-04-27 17:18:00,59.7,25.5,29.71,South,183,1.3,3.8,27,-99.99,,,-99.99,WSDL version 423,2013-04-27 21:18:00,
2013-04-27 17:23:00,59.9,25.9,29.71,SSE,154,0.8,3.8,27,-99.99,,,-99.99,WSDL version 423,2013-04-27 21:23:00,
2013-04-27 17:28:00,60.1,26.0,29.71,SSW,208,1.2,2.9,27,-99.99,,,-99.99,WSDL version 423,2013-04-27 21:28:00,
2013-04-27 17:33:00,60.3,26.2,29.71,WSW,245,1.0,5.8,27,-99.99,,,-99.99,WSDL version 423,2013-04-27 21:33:00,
2013-04-27 17:38:00,60.3,26.2,29.71,NW,315,0.2,5.8,27,-99.99,,,-99.99,WSDL version 423,2013-04-27 21:38:00,
2013-04-27 17:43:00,60.3,26.2,29.71,WNW,299,0.1,2.5,27,-99.99,,,-99.99,WSDL version 423,2013-04-27 21:43:00,
2013-04-27 17:48:00,60.3,26.2,29.71,SW,219,0.0,2.5,27,-99.99,,,-99.99,WSDL version 423,2013-04-27 21:48:00,
2013-04-27 17:53:00,60.3,26.2,29.71,SW,215,0.5,3.4,27,-99.99,,,-99.99,WSDL version 423,2013-04-27 21:53:00,
2013-04-27 17:58:00,60.0,26.4,29.71,SW,233,0.3,3.4,28,-99.99,,,-99.99,WSDL version 423,2013-04-27 21:58:00,
2013-04-27 18:03:00,60.0,26.8,29.71,NW,315,1.0,2.7,28,-99.99,,,-99.99,WSDL version 423,2013-04-27 22:03:00,
2013-04-27 18:08:00,59.9,26.8,29.71,SW,225,1.0,2.7,28,-99.99,,,-99.99,WSDL version 423,2013-04-27 22:08:00,
2013-04-27 18:13:00,59.6,26.5,29.71,SW,233,1.1,2.5,28,-99.99,,,-99.99,WSDL version 423,2013-04-27 22:13:00,
2013-04-27 18:18:00,59.4,26.3,29.71,WSW,250,0.0,2.5,28,-99.99,,,-99.99,WSDL version 423,2013-04-27 22:18:00,
2013-04-27 18:23:00,59.3,26.2,29.71,SW,217,1.5,2.5,28,-99.99,,,-99.99,WSDL version 423,2013-04-27 22:23:00,
2013-04-27 18:28:00,59.1,26.6,29.74,SSW,213,0.8,2.5,29,-99.99,,,-99.99,WSDL version 423,2013-04-27 22:28:00,
2013-04-27 18:33:00,58.9,26.7,29.74,SSW,209,1.8,3.1,29,-99.99,,,-99.99,WSDL version 423,2013-04-27 22:33:00,
2013-04-27 18:38:00,58.7,27.3,29.74,SSW,203,0.0,3.1,30,-99.99,,,-99.99,WSDL version 423,2013-04-27 22:38:00,
2013-04-27 18:43:00,58.4,27.4,29.71,South,191,0.2,1.6,31,-99.99,,,-99.99,WSDL version 423,2013-04-27 22:43:00,
2013-04-27 18:48:00,58.1,27.4,29.71,SW,220,0.3,2.2,31,-99.99,,,-99.99,WSDL version 423,2013-04-27 22:48:00,
2013-04-27 18:53:00,57.8,27.4,29.71,West,265,0.0,2.2,31,-99.99,,,-99.99,WSDL version 423,2013-04-27 22:53:00,
2013-04-27 18:58:00,57.5,27.5,29.71,SSW,208,0.0,0.0,32,-99.99,,,-99.99,WSDL version 423,2013-04-27 22:58:00,
2013-04-27 19:03:00,57.1,28.2,29.71,SW,225,0.0,0.0,33,-99.99,,,-99.99,WSDL version 423,2013-04-27 23:03:00,
2013-04-27 19:08:00,56.8,28.6,29.71,WSW,241,0.0,0.9,34,-99.99,,,-99.99,WSDL version 423,2013-04-27 23:08:00,
2013-04-27 19:13:00,56.4,28.8,29.71,NW,307,0.0,0.9,35,-99.99,,,-99.99,WSDL version 423,2013-04-27 23:13:00,
2013-04-27 19:18:00,56.0,28.7,29.71,WNW,296,0.0,0.0,35,-99.99,,,-99.99,WSDL version 423,2013-04-27 23:18:00,
2013-04-27 19:23:00,55.4,28.4,29.71,SSW,200,0.0,0.0,36,-99.99,,,-99.99,WSDL version 423,2013-04-27 23:23:00,
2013-04-27 19:28:00,55.0,28.5,29.71,South,172,0.0,0.0,36,-99.99,,,-99.99,WSDL version 423,2013-04-27 23:28:00,
2013-04-27 19:33:00,54.4,28.0,29.71,NW,315,0.0,0.0,36,-99.99,,,-99.99,WSDL version 423,2013-04-27 23:33:00,
2013-04-27 19:38:00,53.7,27.4,29.71,WSW,253,0.0,0.0,36,-99.99,,,-99.99,WSDL version 423,2013-04-27 23:38:00,
2013-04-27 19:43:00,53.0,27.3,29.71,SW,231,0.0,0.0,37,-99.99,,,-99.99,WSDL version 423,2013-04-27 23:43:00,
2013-04-27 19:48:00,52.3,26.8,29.71,SW,225,0.0,0.0,37,-99.99,,,-99.99,WSDL version 423,2013-04-27 23:48:00,
2013-04-27 19:53:00,51.5,26.7,29.71,SW,225,0.0,0.0,38,-99.99,,,-99.99,WSDL version 423,2013-04-27 23:53:00,
2013-04-27 19:58:00,50.9,26.6,29.71,SW,225,0.0,0.0,39,-99.99,,,-99.99,WSDL version 423,2013-04-27 23:58:00,
2013-04-27 20:03:00,50.2,26.2,29.71,SW,225,0.0,0.0,39,-99.99,,,-99.99,WSDL version 423,2013-04-28 00:03:00,
2013-04-27 20:08:00,49.7,26.5,29.71,SW,225,0.0,0.0,41,-99.99,,,-99.99,WSDL version 423,2013-04-28 00:08:00,
2013-04-27 20:13:00,49.0,26.4,29.71,SSW,203,0.0,0.0,41,-99.99,,,-99.99,WSDL version 423,2013-04-28 00:13:00,
2013-04-27 20:18:00,48.5,25.9,29.71,SSE,155,0.0,0.0,41,-99.99,,,-99.99,WSDL version 423,2013-04-28 00:18:00,
2013-04-27 20:23:00,48.2,25.6,29.71,SE,135,0.0,0.0,41,-99.99,,,-99.99,WSDL version 423,2013-04-28 00:23:00,
2013-04-27 20:28:00,48.0,26.5,29.71,East,90,0.0,0.0,43,-99.99,,,-99.99,WSDL version 423,2013-04-28 00:28:00,
2013-04-27 20:33:00,47.5,25.9,29.71,NE,55,0.0,0.0,43,-99.99,,,-99.99,WSDL version 423,2013-04-28 00:33:00,
2013-04-27 20:38:00,47.0,25.7,29.71,NE,45,0.0,0.0,43,-99.99,,,-99.99,WSDL version 423,2013-04-28 00:38:00,
2013-04-27 20:43:00,46.6,26.4,29.71,ESE,113,0.0,0.0,45,-99.99,,,-99.99,WSDL version 423,2013-04-28 00:43:00,
2013-04-27 20:48:00,46.1,26.6,29.71,East,90,0.0,0.0,47,-99.99,,,-99.99,WSDL version 423,2013-04-28 00:48:00,
2013-04-27 20:53:00,45.6,26.1,29.71,East,90,0.0,0.0,45,-99.99,,,-99.99,WSDL version 423,2013-04-28 00:53:00,
2013-04-27 20:58:00,45.1,26.6,29.74,East,85,0.0,0.0,48,-99.99,,,-99.99,WSDL version 423,2013-04-28 00:58:00,
2013-04-27 21:03:00,44.6,26.0,29.74,NNE,28,0.0,0.0,49,-99.99,,,-99.99,WSDL version 423,2013-04-28 01:03:00,
2013-04-27 21:08:00,44.2,26.3,29.74,NE,45,0.0,0.0,49,-99.99,,,-99.99,WSDL version 423,2013-04-28 01:08:00,
2013-04-27 21:13:00,43.7,26.2,29.71,NE,45,0.0,0.0,50,-99.99,,,-99.99,WSDL version 423,2013-04-28 01:13:00,
2013-04-27 21:18:00,43.4,26.1,29.71,NE,45,0.0,0.0,50,-99.99,,,-99.99,WSDL version 423,2013-04-28 01:18:00,
2013-04-27 21:23:00,43.1,25.8,29.71,NNE,23,0.0,0.0,51,-99.99,,,-99.99,WSDL version 423,2013-04-28 01:23:00,
2013-04-27 21:28:00,42.7,26.0,29.74,NNE,23,0.0,0.0,52,-99.99,,,-99.99,WSDL version 423,2013-04-28 01:28:00,
2013-04-27 21:33:00,42.4,26.2,29.74,NNE,23,0.0,0.0,53,-99.99,,,-99.99,WSDL version 423,2013-04-28 01:33:00,
2013-04-27 21:38:00,42.3,27.1,29.74,NNE,23,0.0,0.0,56,-99.99,,,-99.99,WSDL version 423,2013-04-28 01:38:00,
2013-04-27 21:43:00,42.0,27.7,29.74,NNE,25,0.0,0.0,57,-99.99,,,-99.99,WSDL version 423,2013-04-28 01:43:00,
2013-04-27 21:48:00,41.7,28.0,29.74,NNE,20,0.6,2.5,58,-99.99,,,-99.99,WSDL version 423,2013-04-28 01:48:00,
2013-04-27 21:53:00,41.5,28.7,29.74,North,8,1.8,2.5,61,-99.99,,,-99.99,WSDL version 423,2013-04-28 01:53:00,
2013-04-27 21:58:00,41.1,28.4,29.74,North,360,0.0,2.5,60,-99.99,,,-99.99,WSDL version 423,2013-04-28 01:58:00,
2013-04-27 22:03:00,40.7,28.2,29.74,North,360,0.0,2.5,60,-99.99,,,-99.99,WSDL version 423,2013-04-28 02:03:00,
2013-04-27 22:08:00,40.5,27.8,29.74,NNE,14,0.0,0.0,60,-99.99,,,-99.99,WSDL version 423,2013-04-28 02:08:00,
2013-04-27 22:13:00,40.1,27.9,29.74,North,8,1.3,2.2,63,-99.99,,,-99.99,WSDL version 423,2013-04-28 02:13:00,
2013-04-27 22:18:00,39.8,28.7,29.74,North,8,1.9,2.5,65,-99.99,,,-99.99,WSDL version 423,2013-04-28 02:18:00,
2013-04-27 22:23:00,39.5,29.1,29.74,North,360,0.4,2.5,66,-99.99,,,-99.99,WSDL version 423,2013-04-28 02:23:00,
2013-04-27 22:28:00,39.2,29.2,29.74,NNW,346,0.7,2.2,67,-99.99,,,-99.99,WSDL version 423,2013-04-28 02:28:00,
2013-04-27 22:33:00,38.9,28.9,29.74,NNE,16,0.3,1.3,67,-99.99,,,-99.99,WSDL version 423,2013-04-28 02:33:00,
2013-04-27 22:38:00,38.7,28.9,29.74,North,357,0.0,1.3,68,-99.99,,,-99.99,WSDL version 423,2013-04-28 02:38:00,
2013-04-27 22:43:00,38.4,29.1,29.74,NNW,338,0.3,2.2,69,-99.99,,,-99.99,WSDL version 423,2013-04-28 02:43:00,
2013-04-27 22:48:00,38.1,28.9,29.74,NNE,13,0.3,2.2,69,-99.99,,,-99.99,WSDL version 423,2013-04-28 02:48:00,
2013-04-27 22:53:00,37.9,28.8,29.74,NE,35,0.9,2.2,70,-99.99,,,-99.99,WSDL version 423,2013-04-28 02:53:00,
2013-04-27 22:58:00,37.7,29.1,29.74,North,3,1.5,2.5,72,-99.99,,,-99.99,WSDL version 423,2013-04-28 02:58:00,
2013-04-27 23:03:00,37.5,29.6,29.74,North,354,1.6,2.9,73,-99.99,,,-99.99,WSDL version 423,2013-04-28 03:03:00,
2013-04-27 23:08:00,37.3,30.1,29.74,NNW,343,2.2,2.9,76,-99.99,,,-99.99,WSDL version 423,2013-04-28 03:08:00,
2013-04-27 23:13:00,37.1,30.2,29.74,North,354,0.0,2.9,75,-99.99,,,-99.99,WSDL version 423,2013-04-28 03:13:00,
2013-04-27 23:18:00,36.9,29.7,29.74,NNW,345,0.2,1.6,75,-99.99,,,-99.99,WSDL version 423,2013-04-28 03:18:00,
2013-04-27 23:23:00,36.8,29.8,29.74,NNW,346,1.5,2.0,76,-99.99,,,-99.99,WSDL version 423,2013-04-28 03:23:00,
2013-04-27 23:28:00,36.5,29.7,29.74,North,360,0.2,2.0,76,-99.99,,,-99.99,WSDL version 423,2013-04-28 03:28:00,
2013-04-27 23:33:00,36.3,29.5,29.74,NE,39,1.1,2.0,76,-99.99,,,-99.99,WSDL version 423,2013-04-28 03:33:00,
2013-04-27 23:38:00,36.2,29.4,29.74,NNE,23,1.4,2.2,77,-99.99,,,-99.99,WSDL version 423,2013-04-28 03:38:00,
2013-04-27 23:43:00,36.0,29.7,29.74,North,353,1.4,2.5,78,-99.99,,,-99.99,WSDL version 423,2013-04-28 03:43:00,
2013-04-27 23:48:00,35.8,29.6,29.74,North,6,0.0,2.5,78,-99.99,,,-99.99,WSDL version 423,2013-04-28 03:48:00,
2013-04-27 23:53:00,35.7,29.3,29.74,NNE,23,0.9,1.6,77,-99.99,,,-99.99,WSDL version 423,2013-04-28 03:53:00,
2013-04-27 23:58:00,35.6,29.6,29.74,NNE,23,1.7,2.5,79,-99.99,,,-99.99,WSDL version 423,2013-04-28 03:58:00,